Location: Hiram
(41.3130°N, 81.1440°W)
Time: 15:01:43
(UTC-05:00)

Iridium 62 - Visible Passes

Search period start: 06 March 2015 00:00
Search period end: 16 March 2015 01:00
Orbit: 776 x 779 km, 86.4° (Epoch: 06 March)

Date Brightness Start Highest point End Pass type
(mag) Time Alt. Az. Time Alt. Az. Time Alt. Az.
06 Mar 8.1 03:25:12 19° NNE 03:25:12 19° NNE 03:26:39 10° NNE visible
06 Mar 7.9 05:05:40 13° NW 05:05:40 13° NW 05:06:26 10° NNW visible
07 Mar 8.6 02:51:53 13° NNE 02:51:53 13° NNE 02:52:35 10° NNE visible
07 Mar 7.8 04:32:22 17° NNW 04:32:22 17° NNW 04:33:39 10° NNW visible
08 Mar 7.8 04:59:02 19° N 04:59:02 19° N 05:00:25 10° N visible
09 Mar 8.1 04:25:41 17° N 04:25:41 17° N 04:26:53 10° N visible
10 Mar 8.5 03:52:19 14° NNE 03:52:19 14° NNE 03:53:03 10° NNE visible
10 Mar 8.0 05:32:48 12° NNW 05:32:48 12° NNW 05:33:22 10° NNW visible
11 Mar 8.0 04:59:25 15° NNW 04:59:25 15° NNW 05:00:22 10° N visible
12 Mar 8.2 04:26:02 16° N 04:26:02 16° N 04:27:01 10° N visible
13 Mar 8.5 03:52:38 14° NNE 03:52:38 14° NNE 03:53:22 10° NNE visible
14 Mar 8.8 03:19:13 11° NNE 03:19:13 11° NNE 03:19:23 10° NNE visible
14 Mar 8.2 04:59:42 12° NNW 04:59:42 12° NNW 05:00:11 10° NNW visible
15 Mar 8.2 04:26:17 14° N 04:26:17 14° N 04:27:02 10° N visible
